Theta_e
356 356 355 356 357 358 358 357 357 357 358 358 359 357 356 356 358 357 354 356 356 355 355 353 354 356 356 353 352 353 353 353 354 354 354 356 358 360 359 358 356 356 357 357 357 357 357 356 356 356 356 356 356 356 356 355 356 355 355 355 354 354 354 354 354 353 353 353 352 352 352 352 352 352 352 352 353 353 353 352 352 353 353 353 353
356 356 355 355 356 357 359 357 357 357 358 358 358 357 356 356 357 358 356 356 356 355 358 353 352 353 355 354 352 352 353 352 353 354 355 356 358 360 358 357 358 356 357 358 356 358 357 356 356 356 355 356 356 356 355 355 355 355 355 355 354 354 354 353 353 353 352 353 352 352 352 352 353 353 353 352 353 353 354 354 353 354 353 352 352
356 356 356 355 355 357 357 357 356 357 358 357 357 358 356 357 357 358 356 357 357 355 360 355 354 352 354 354 352 353 353 353 353 354 354 356 358 360 361 359 358 358 357 357 357 357 357 358 357 357 356 355 355 355 355 355 355 355 355 354 354 354 353 353 353 353 352 352 353 352 352 352 353 353 353 353 353 354 352 352 352 352 352 352 352
356 355 356 355 355 356 356 356 356 356 358 357 356 357 359 358 359 359 357 359 357 355 358 354 354 354 351 353 352 352 353 352 352 353 355 356 358 359 360 360 357 360 359 358 357 357 358 358 357 357 357 356 355 355 355 355 355 355 354 354 354 354 354 353 353 353 352 352 352 352 352 353 353 353 353 353 352 353 352 352 352 353 352 352 351
355 356 361 356 356 356 355 357 357 356 356 358 358 357 358 359 359 363 358 354 354 355 358 353 353 353 351 352 352 351 354 353 353 353 354 355 357 359 360 361 361 360 359 359 357 358 357 357 358 357 357 357 356 356 355 356 355 355 355 355 354 354 354 354 354 353 354 353 353 353 353 353 353 353 353 353 353 353 352 352 352 352 352 351 351
355 355 358 356 355 355 355 355 356 357 357 359 357 357 357 357 358 359 362 356 353 353 353 353 352 349 349 350 351 352 353 352 352 352 354 355 356 358 359 360 361 361 361 358 358 357 357 357 357 358 358 357 357 357 356 356 356 355 355 355 355 354 355 355 354 354 354 354 353 352 354 353 353 354 354 353 353 353 353 352 352 352 352 351 351
355 355 356 356 354 355 354 355 355 358 358 359 358 358 356 356 360 356 355 354 353 355 353 351 351 344 346 350 350 352 353 353 352 352 352 355 356 357 358 359 359 360 360 360 360 357 357 357 357 358 358 357 358 357 357 356 356 356 355 355 354 355 354 354 354 354 354 354 355 354 354 354 354 353 353 353 353 353 353 352 352 352 352 352 353
355 355 355 355 354 354 354 355 356 359 359 359 359 357 356 354 358 356 353 352 357 352 351 351 349 344 346 349 350 354 352 353 353 352 352 354 355 356 357 358 359 359 361 360 360 360 358 356 357 357 358 358 358 357 357 357 356 355 354 354 355 356 355 355 355 354 354 354 354 354 354 353 354 352 353 353 352 352 352 352 352 352 352 352 352
356 356 355 355 354 354 354 354 358 359 359 358 358 358 355 354 354 358 354 352 353 351 349 350 348 346 346 346 349 353 351 353 353 353 354 353 354 355 356 357 359 360 360 359 359 359 359 358 357 357 358 358 358 358 357 357 357 355 356 355 355 355 355 354 354 354 355 355 354 354 354 354 353 353 353 352 353 352 352 352 352 352 351 350 349
357 356 355 355 355 355 354 355 358 359 358 357 357 356 356 355 354 357 354 353 352 349 348 349 346 343 344 344 347 350 350 352 354 357 354 353 353 354 355 357 358 358 359 359 357 358 358 359 359 357 358 358 358 358 357 357 357 356 357 356 356 356 355 354 354 354 354 354 354 354 354 354 353 353 353 353 353 352 352 352 351 351 348 347 346
357 357 355 356 356 355 355 357 359 358 357 356 356 358 357 354 355 355 357 353 354 351 349 345 343 344 342 342 345 347 349 351 356 356 354 353 353 355 355 356 357 358 358 358 358 357 358 358 359 360 359 358 358 358 358 358 356 356 355 356 355 355 355 354 354 354 354 354 354 353 354 354 353 353 353 353 352 352 351 350 348 347 346 345 345
357 357 355 356 356 356 356 358 359 358 355 355 355 357 356 354 354 355 354 358 355 351 348 344 340 341 344 343 345 347 349 353 353 353 354 353 354 357 355 356 356 357 357 357 357 357 357 357 359 359 359 358 358 358 358 357 356 356 355 355 356 356 356 355 356 355 354 354 354 353 353 353 353 352 352 352 352 351 349 347 345 346 346 345 345
358 356 355 358 357 357 357 358 359 358 356 355 356 358 357 355 357 360 353 351 353 347 343 341 339 338 340 340 343 348 353 352 350 351 351 352 353 354 355 355 355 355 356 357 357 356 356 356 357 358 358 359 358 358 358 357 357 357 357 356 357 356 356 354 355 355 354 355 354 353 353 353 352 352 351 351 351 349 348 345 343 345 345 345 345
360 357 356 356 356 356 357 357 358 358 357 357 356 360 361 358 356 356 355 351 350 350 342 340 336 335 335 336 340 344 348 347 347 348 349 350 351 353 354 353 353 354 355 355 355 355 355 355 356 356 357 357 357 358 359 358 359 357 357 357 356 357 356 355 355 355 354 355 355 353 353 351 351 351 351 350 350 348 346 341 345 345 345 344 344
360 359 355 356 356 355 355 357 358 359 358 356 358 358 358 357 356 354 352 352 354 353 347 340 337 337 337 337 331 335 342 342 343 344 345 348 350 350 352 352 352 354 354 354 353 353 354 354 354 355 355 355 356 356 357 357 358 357 357 357 356 356 355 355 356 355 354 354 354 354 353 351 351 350 350 349 348 347 345 343 342 345 344 344 343
359 359 357 356 356 354 355 356 358 359 358 356 356 357 356 355 355 355 353 350 349 351 351 343 340 337 332 331 329 332 329 333 337 341 342 345 347 348 350 351 351 352 353 352 352 353 353 353 353 353 354 354 355 355 355 356 357 358 358 357 357 357 355 355 355 355 354 354 353 353 352 351 349 349 349 348 347 346 345 344 343 342 342 343 343
358 360 359 356 356 355 354 355 357 358 358 356 356 356 356 356 356 354 352 351 348 348 350 344 342 342 335 328 328 326 328 331 331 338 337 341 343 346 349 350 350 351 352 351 352 352 353 352 352 352 352 353 353 353 354 355 356 358 358 358 357 357 355 355 355 354 353 353 353 353 352 350 349 349 349 349 347 345 344 344 344 343 341 343 343
357 359 360 359 357 356 355 354 356 358 358 357 357 357 355 355 355 355 353 351 351 348 347 353 346 348 338 340 338 333 330 331 332 331 340 340 342 344 347 348 350 350 351 350 349 350 352 352 352 352 352 352 352 352 353 354 355 355 356 357 356 357 357 356 354 354 352 352 352 351 350 350 349 349 349 347 346 345 344 343 343 343 344 343 344
357 357 359 360 357 356 356 355 355 357 359 357 356 356 356 356 357 355 355 355 349 348 346 343 345 346 345 342 345 343 334 332 330 328 329 338 337 338 341 344 347 348 348 349 349 349 350 352 352 352 352 352 352 352 353 353 354 355 356 356 356 355 357 355 355 354 354 352 352 351 351 350 349 349 346 346 346 345 343 343 343 343 344 344 345
357 357 358 359 358 356 356 356 355 356 359 357 356 357 358 358 358 357 356 356 351 349 346 341 344 343 345 344 343 340 334 334 333 333 332 331 334 335 335 339 343 346 348 348 349 349 350 351 351 351 352 352 352 352 352 352 352 353 355 355 356 355 356 355 354 354 353 352 353 352 352 351 350 348 346 346 345 344 343 343 344 344 345 346 346
358 357 357 358 360 357 356 356 356 356 360 359 358 358 358 358 358 357 355 354 353 350 347 344 341 343 340 338 337 339 337 339 337 339 336 330 329 329 334 335 337 341 344 347 349 350 350 350 351 352 352 353 352 352 352 352 352 352 353 353 354 355 355 355 354 353 353 353 353 353 352 350 350 348 347 346 345 345 344 344 344 345 346 347 347
357 357 357 357 358 359 356 356 356 357 360 360 359 358 358 359 358 358 357 355 354 354 349 346 343 343 341 340 338 337 336 336 335 333 330 334 332 331 332 332 333 338 340 342 346 348 348 349 350 351 352 353 353 352 352 352 352 352 351 353 354 354 354 355 353 353 353 352 352 351 349 348 347 347 346 345 346 345 346 347 348 348 348 348 347
356 357 357 357 358 359 357 356 356 359 360 360 359 359 359 359 359 359 358 356 354 353 354 351 345 343 339 339 339 337 336 335 334 333 333 330 330 329 330 331 332 333 339 338 344 345 347 348 348 348 351 352 352 352 352 352 352 352 351 352 353 354 354 355 354 353 351 352 351 349 348 347 346 346 346 346 346 346 347 348 348 348 349 349 348
355 356 356 357 357 357 359 357 357 357 358 359 360 360 360 360 360 359 358 357 356 354 352 352 346 343 340 337 337 337 337 337 336 337 333 333 333 332 332 333 333 333 335 337 339 341 343 344 346 347 349 350 352 352 352 352 352 352 353 353 352 352 353 354 354 353 351 349 348 349 348 348 347 347 347 347 348 347 347 348 349 350 350 350 349
353 354 355 356 357 356 357 356 356 357 357 358 360 361 361 360 359 359 359 357 356 354 352 351 348 344 343 339 337 335 336 337 336 336 336 336 335 333 331 330 333 332 335 332 336 338 341 343 345 346 347 349 350 351 351 352 352 352 353 354 352 351 351 352 353 352 350 349 347 348 348 349 349 349 349 349 348 349 350 351 350 350 351 351 350
353 353 355 356 357 357 357 357 357 358 358 358 359 360 361 360 360 359 358 359 358 355 354 352 349 347 345 341 336 335 336 337 336 337 336 334 333 331 333 334 331 331 332 336 336 334 338 340 343 347 346 347 348 349 350 350 351 351 352 354 351 348 349 349 351 350 348 348 346 346 347 348 349 349 350 350 349 350 350 350 350 350 351 351 350
352 354 356 356 357 357 357 357 357 358 359 358 359 360 360 361 360 359 360 359 358 356 354 351 348 346 344 342 341 338 337 339 338 338 338 337 335 334 334 330 330 330 333 334 333 333 333 339 341 342 345 347 347 348 349 349 349 350 351 354 355 349 347 347 348 348 347 346 346 345 346 347 348 349 350 350 351 350 350 350 350 350 350 350 351
353 354 355 356 356 356 357 357 358 358 358 359 359 359 359 359 359 359 359 359 357 355 355 351 349 348 345 345 341 339 339 338 340 340 339 339 337 336 336 335 331 328 329 331 331 333 334 335 339 342 344 344 346 347 347 347 347 348 351 353 353 352 347 345 345 345 345 344 344 344 344 346 346 347 348 349 350 350 350 349 349 349 349 350 349
351 354 354 355 356 356 356 356 357 358 358 359 359 359 359 359 358 358 358 359 358 356 355 352 351 347 345 344 343 343 342 340 341 341 341 341 340 338 338 336 335 332 331 329 331 331 335 333 334 342 343 345 345 346 346 347 347 347 349 351 351 352 347 343 343 342 343 343 342 342 343 344 344 344 345 347 347 348 349 348 347 348 348 346 346
350 353 354 354 355 358 356 356 357 357 358 359 359 359 359 358 358 358 359 359 357 357 356 354 352 350 347 345 344 344 345 341 340 340 342 342 341 339 339 338 338 335 333 330 331 332 334 334 333 337 341 342 343 344 344 345 346 347 348 348 348 350 343 341 341 341 341 341 340 340 341 342 343 343 342 342 343 345 346 347 347 346 346 344 344
351 352 352 353 353 355 356 355 356 356 357 358 359 359 359 358 358 357 358 358 357 356 356 354 353 351 348 345 345 344 345 343 342 339 342 341 341 340 340 339 337 337 335 334 329 336 333 336 337 336 338 341 340 341 342 344 345 345 347 347 347 344 343 344 341 340 339 339 338 337 337 338 338 339 338 339 340 341 342 343 343 343 344 343 343
350 351 352 352 353 353 354 355 355 355 356 357 358 359 359 358 358 357 357 357 356 356 356 355 353 351 350 348 347 345 345 344 343 342 342 342 341 340 340 339 338 338 338 335 332 331 337 335 338 339 337 340 341 340 342 342 343 345 346 346 346 343 345 347 343 339 338 337 337 336 335 334 334 335 337 338 339 340 342 341 340 340 339 339 340
350 350 351 352 352 353 353 354 354 354 355 356 357 358 358 358 358 358 358 356 356 356 356 355 353 352 351 349 349 348 346 344 344 343 342 342 342 341 340 339 338 338 336 334 332 332 336 337 337 338 339 338 338 340 341 341 342 343 344 346 346 343 343 344 345 341 338 336 335 334 334 333 333 333 334 336 337 339 340 340 339 337 336 335 337
351 351 351 352 352 352 353 353 354 354 355 355 356 357 357 357 357 357 357 356 355 355 355 354 355 353 352 351 350 350 348 345 344 342 342 342 342 341 341 339 339 338 338 336 333 334 332 337 338 341 341 338 340 341 340 339 340 343 342 344 344 344 343 343 342 342 338 335 332 331 332 332 332 332 333 334 335 335 336 336 336 334 333 334 333
352 351 351 352 352 353 352 353 353 354 354 355 356 356 356 356 356 356 356 356 355 354 354 354 354 354 352 351 350 351 349 346 345 344 343 342 342 342 342 342 341 340 338 337 337 334 333 335 339 337 339 341 340 342 341 341 343 343 341 341 341 343 343 343 342 341 337 334 332 330 330 330 330 331 330 331 332 332 332 331 330 330 330 330 329
350 352 353 352 353 352 352 352 352 353 354 354 355 356 356 356 356 356 356 356 356 355 355 354 354 354 352 351 351 351 350 348 347 346 344 343 343 343 342 343 343 342 341 338 338 337 337 334 338 338 340 339 342 341 342 342 340 341 341 342 342 341 342 343 343 342 339 334 332 331 330 329 328 328 328 329 329 328 327 327 326 326 326 326 327
351 351 353 353 353 352 351 352 352 352 353 354 354 355 356 357 356 356 356 356 356 356 356 355 355 354 353 352 352 352 351 348 348 347 346 344 343 342 341 342 342 343 342 341 339 338 336 335 336 340 341 341 342 343 343 341 342 341 341 340 341 342 342 341 342 342 339 335 334 332 331 329 329 328 328 327 327 326 325 325 325 325 324 324 325
351 352 352 353 353 352 353 353 353 353 353 354 354 354 355 356 356 356 356 356 356 356 356 356 356 355 354 354 353 353 351 348 348 349 348 346 345 343 342 342 342 343 342 342 342 340 338 337 337 337 341 339 339 341 343 342 340 340 341 341 341 341 341 340 340 340 342 342 342 340 334 332 331 328 329 328 327 326 325 325 324 323 322 322 320
351 351 352 352 353 353 353 354 353 354 353 353 354 354 355 355 356 356 356 356 356 356 356 356 356 356 355 354 354 353 352 351 350 349 349 348 346 345 344 343 343 342 341 341 341 340 339 338 339 339 338 341 340 337 343 342 342 341 339 338 338 343 341 340 340 342 342 341 340 338 339 338 336 335 328 325 326 326 326 325 324 323 322 320 319
350 351 351 351 352 353 353 354 354 355 354 354 354 354 355 355 355 355 356 355 355 356 356 356 356 356 356 355 354 354 353 353 352 351 351 349 349 347 347 345 344 342 340 340 340 340 339 338 338 337 339 339 341 339 340 340 339 338 339 337 335 337 339 342 341 340 343 342 342 341 339 337 336 334 328 328 328 328 327 326 327 327 325 322 320
351 351 352 352 352 352 353 354 354 354 354 354 354 354 354 354 355 355 355 355 355 355 355 355 356 356 356 356 355 355 355 351 344 344 345 344 350 347 348 347 345 343 341 340 339 339 338 338 337 338 338 337 338 339 339 337 336 335 342 339 338 339 340 339 340 343 342 341 341 340 341 342 342 341 341 340 339 334 332 330 332 332 328 322 321
351 351 352 352 352 352 352 353 353 353 354 354 346 335 339 353 354 355 355 355 355 355 355 355 355 355 356 356 356 352 344 341 339 336 334 334 336 345 350 349 347 345 343 341 340 339 338 337 337 337 336 335 336 338 337 339 340 341 338 339 336 337 339 338 338 342 343 340 339 339 340 343 341 342 343 341 342 342 340 338 336 334 332 327 324
350 351 351 350 351 352 352 352 352 353 353 352 336 331 331 334 350 355 354 354 355 356 355 355 354 355 356 356 357 356 349 343 343 334 333 332 332 332 334 337 341 347 345 343 341 341 339 338 339 338 336 335 337 338 338 339 339 338 338 339 337 336 334 333 331 339 345 342 341 339 338 342 342 340 341 341 341 342 341 341 335 331 327 327 325
350 350 349 349 350 350 351 352 352 352 353 339 332 330 330 329 334 353 355 355 354 355 355 355 355 355 355 355 356 357 357 357 355 352 341 332 329 329 329 330 332 333 335 344 344 343 341 338 338 338 337 336 337 339 338 338 337 338 339 337 337 335 334 333 333 332 340 342 340 339 338 342 342 340 339 340 341 342 340 336 332 330 327 325 325
350 349 349 349 349 350 350 350 350 352 353 337 331 328 328 328 327 338 354 354 354 354 355 355 355 355 355 355 355 357 357 349 352 356 356 353 333 327 327 328 328 328 328 328 331 344 347 343 340 339 339 339 338 339 340 340 341 338 338 336 336 337 336 334 334 335 338 343 341 339 335 337 339 338 338 339 341 340 339 333 330 329 327 325 324
350 349 349 349 349 349 349 349 349 350 351 338 329 326 326 325 326 331 350 353 354 354 355 355 355 356 356 355 355 355 357 357 357 356 356 356 356 350 341 338 339 338 328 325 325 325 332 341 342 341 343 344 341 341 344 343 340 338 337 336 338 336 335 334 337 338 340 343 338 337 334 336 340 338 335 338 340 339 339 334 328 326 326 325 324
349 349 349 349 349 349 349 349 349 349 349 334 327 323 322 322 324 327 347 352 354 354 355 356 356 356 356 356 356 356 356 357 357 355 356 356 355 355 354 351 347 347 347 343 338 336 336 335 338 340 342 344 345 345 346 346 344 343 342 340 340 339 339 340 340 340 339 343 342 339 332 336 341 337 335 338 339 338 341 331 327 325 325 324 323
351 351 351 350 349 349 350 350 349 348 350 331 325 323 321 320 322 336 345 349 351 353 354 355 356 357 357 357 356 356 357 357 347 335 341 355 356 354 352 353 354 353 351 341 335 336 341 342 342 341 343 344 337 346 347 346 346 346 344 342 340 339 338 336 335 338 337 341 339 336 333 334 339 337 337 340 341 338 339 338 329 324 324 323 323
350 350 350 350 351 350 350 350 349 349 350 336 323 320 319 318 321 340 345 347 349 351 352 354 355 356 356 357 357 356 357 356 344 332 330 334 353 353 353 353 353 353 353 350 333 328 328 326 326 328 328 328 327 326 325 325 332 340 344 338 337 339 336 334 335 336 337 340 340 339 336 334 338 339 337 339 339 337 337 338 338 326 322 322 321
350 350 351 351 351 351 350 350 350 349 350 340 322 318 317 317 325 343 345 346 347 349 350 352 354 355 356 349 355 356 356 356 338 329 329 334 348 352 352 352 351 351 352 350 347 341 326 324 324 324 324 324 324 323 324 323 323 325 336 334 337 340 335 334 333 335 338 340 340 341 336 334 339 341 339 340 340 338 337 339 338 335 326 321 318
352 352 352 351 351 351 351 350 342 347 350 342 322 318 316 315 325 344 346 346 347 348 349 350 352 353 355 351 346 345 349 348 333 328 326 333 349 352 353 352 350 350 351 345 345 345 347 346 345 342 340 337 338 338 337 326 324 334 335 336 339 339 336 336 337 337 334 336 342 343 334 335 336 339 338 334 330 336 340 340 339 338 335 331 329
Wind_Speed
2 2 2 2 2 1 1 1 1 2 1 1 0 2 2 1 1 0 0 0 0 1 2 2 2 2 3 3 3 3 3 3 2 2 3 2 3 4 8 8 6 6 5 6 7 7 6 6 6 6 6 6 6 5 5 5 5 5 5 5 4 4 4 3 2 2 1 1 1 1 1 2 2 3 3 4 4 5 6 6 7 7 8 8 9
3 2 3 3 2 2 2 2 2 1 0 2 1 1 2 1 1 1 0 1 1 1 1 2 2 3 2 3 3 4 4 4 3 2 2 3 3 3 7 8 8 9 7 8 6 7 7 6 6 6 6 6 6 6 5 5 4 4 4 4 4 3 3 3 2 1 1 1 1 2 1 2 3 3 3 4 5 5 6 6 7 7 8 8 9
3 3 3 3 3 3 3 2 2 2 1 2 1 1 1 1 2 1 1 1 0 1 2 2 2 3 3 3 3 3 3 3 3 3 3 3 2 2 3 7 9 9 10 9 7 7 6 6 6 6 6 6 6 6 5 5 5 4 4 4 3 3 3 3 2 2 1 1 1 1 2 2 3 3 4 4 5 6 7 7 8 8 9 10 9
4 3 4 3 3 3 2 2 3 2 2 2 2 1 2 2 1 1 0 1 1 1 0 2 3 2 3 4 3 3 3 3 4 4 3 4 3 2 1 3 7 8 8 8 8 7 7 7 6 6 6 6 6 6 6 6 5 5 5 4 4 4 3 3 2 3 3 3 3 2 3 3 3 4 5 6 6 7 7 7 7 8 8 8 8
4 4 4 3 3 3 3 3 3 2 2 2 2 2 2 2 2 1 1 1 2 2 1 1 2 1 2 2 3 3 3 3 3 4 4 5 4 2 2 2 3 7 8 7 8 8 7 7 7 6 6 6 6 6 6 6 6 6 5 5 4 4 4 4 3 3 3 4 4 4 4 5 5 6 5 6 6 6 6 7 6 7 8 9 9
5 5 4 3 3 3 3 3 3 2 2 1 2 1 2 2 2 1 1 1 0 1 1 3 2 0 2 2 3 3 3 3 3 3 3 4 5 4 2 1 1 1 3 6 7 7 8 7 7 6 6 6 7 7 7 7 7 6 6 5 5 5 5 4 4 4 4 4 5 5 5 5 6 6 6 6 6 7 6 6 7 7 8 7 8
5 5 5 4 4 4 4 4 2 2 2 1 2 1 2 2 1 1 0 1 1 0 1 2 3 3 1 3 3 3 3 3 3 3 3 3 4 5 2 2 1 1 1 1 4 7 6 7 7 7 6 7 7 8 8 7 7 7 7 5 5 6 5 5 6 4 5 5 5 5 6 6 6 6 6 6 6 6 7 6 7 8 7 7 8
6 5 5 5 4 5 4 3 3 2 2 1 1 2 2 1 1 1 2 2 0 1 2 1 1 2 1 2 2 3 3 3 3 3 3 3 4 4 4 3 1 1 4 1 1 2 7 7 7 7 7 7 8 8 7 7 6 8 6 7 7 6 6 5 6 5 5 5 5 5 5 5 6 6 6 6 6 6 6 7 6 6 7 8 8
6 5 5 5 5 4 3 3 3 3 2 2 2 2 2 2 2 2 2 1 1 0 1 2 1 2 1 2 2 3 3 3 3 3 3 3 3 4 5 4 4 5 3 2 2 2 4 8 8 8 8 8 8 8 8 7 7 7 6 6 7 9 7 5 5 6 6 6 6 6 5 5 6 7 7 7 7 6 5 6 7 7 7 7 8
6 6 6 5 5 5 3 4 3 3 2 2 3 1 1 2 2 1 1 2 1 2 1 1 2 3 1 0 0 1 1 1 2 3 3 3 3 4 5 5 5 4 4 2 2 2 3 5 8 9 9 8 8 7 8 7 7 7 6 6 7 7 6 5 5 6 6 7 7 6 6 6 6 6 6 6 6 4 5 6 6 6 6 6 7
6 6 6 5 5 4 4 4 3 3 3 3 3 2 1 1 3 2 2 2 2 1 3 2 4 4 4 3 2 2 2 2 1 1 0 1 2 3 3 5 4 4 4 4 2 2 3 3 3 2 4 8 8 9 8 8 8 6 5 8 8 7 7 5 6 7 8 7 7 6 6 6 6 5 4 5 4 4 5 5 5 5 5 6 6
6 6 6 5 5 5 5 4 4 4 4 4 3 3 4 3 3 2 2 2 2 2 4 5 4 6 5 4 3 2 2 1 1 1 1 0 2 2 4 3 4 4 5 5 5 5 4 3 3 3 2 4 7 8 9 8 7 7 6 8 9 8 7 7 7 8 7 8 7 6 6 5 4 4 4 4 3 4 4 4 4 4 5 5 5
6 6 6 5 5 4 4 4 4 4 4 5 5 4 3 3 1 0 2 2 1 1 2 3 5 4 4 4 4 2 2 2 1 1 1 1 1 2 2 3 3 4 4 4 5 5 5 5 4 3 3 2 3 6 8 8 7 6 7 8 8 8 8 8 7 8 8 8 7 6 4 4 3 2 2 2 2 3 3 4 3 4 4 4 4
6 6 6 6 5 4 4 5 4 4 4 3 3 3 3 2 1 1 1 2 2 1 3 3 2 3 3 1 3 2 1 1 1 1 0 1 1 2 1 2 2 2 2 4 4 4 5 5 5 5 5 4 4 2 3 4 5 6 7 8 8 9 9 7 8 8 8 7 7 4 3 1 1 2 3 1 2 2 2 1 1 3 3 3 4
6 6 6 6 6 5 5 4 5 4 4 4 3 4 3 4 3 3 3 1 1 1 4 1 3 2 2 4 2 2 3 2 1 2 2 2 1 3 2 3 3 2 2 3 3 4 5 5 5 5 5 4 4 4 5 5 5 6 7 6 7 8 8 8 8 8 8 6 5 4 2 2 3 3 3 1 1 1 1 1 1 1 2 3 3
6 6 5 6 6 6 5 5 5 4 5 5 4 4 3 3 3 3 2 2 0 1 1 2 3 5 2 1 1 2 2 4 4 3 1 2 3 3 2 3 3 3 1 3 4 4 4 4 5 5 5 5 4 4 5 4 6 9 10 8 7 5 6 8 7 7 6 6 4 1 1 1 3 3 3 2 2 1 1 1 0 1 1 2 3
6 6 6 7 6 5 5 5 5 4 4 5 5 5 5 4 4 4 4 4 3 1 0 2 4 0 7 3 3 1 3 3 2 4 1 2 3 3 3 3 3 3 3 3 2 4 5 4 5 4 5 5 4 4 4 5 5 5 6 7 7 6 5 6 7 7 6 4 3 2 2 2 3 4 3 3 3 3 2 2 2 1 2 2 3
6 6 6 6 6 6 6 5 5 5 5 5 4 3 4 4 5 5 5 3 3 2 2 2 2 3 3 2 4 3 4 2 1 4 2 2 2 2 3 4 3 3 3 4 4 3 4 5 5 5 5 4 4 4 4 4 4 4 4 3 7 6 5 5 6 7 7 4 4 4 4 4 4 4 4 4 4 3 4 3 3 2 2 3 3
6 6 6 6 6 6 6 6 5 5 4 4 4 5 5 5 3 4 5 3 3 4 5 3 2 2 3 1 2 0 4 5 4 2 3 3 2 3 4 4 4 5 5 5 4 3 3 4 5 6 5 4 4 4 4 5 6 6 8 8 7 7 5 5 5 6 7 5 6 5 5 6 6 6 5 5 5 5 4 4 4 3 3 3 4
6 6 6 6 6 6 6 5 5 5 4 5 6 5 4 3 4 4 3 3 5 5 5 3 5 3 2 3 0 2 1 2 3 6 3 2 3 1 2 3 3 5 6 6 5 5 4 3 4 4 4 3 4 5 5 5 5 5 5 6 7 8 7 6 6 7 7 6 7 6 6 7 7 7 6 6 6 5 5 5 5 5 5 5 5
7 7 7 7 6 6 6 6 6 5 5 5 5 5 6 6 5 4 5 4 5 4 3 4 4 4 3 1 1 1 1 1 2 2 2 3 4 3 4 2 1 5 5 5 5 4 4 4 3 4 4 4 3 5 5 5 5 5 6 7 8 9 8 6 6 8 7 8 8 7 7 8 8 8 8 7 7 6 6 6 6 7 7 7 6
6 7 7 7 7 6 6 7 7 6 5 6 5 5 5 5 6 6 5 5 4 4 5 4 4 3 4 4 4 2 1 0 0 2 0 1 4 4 4 5 5 4 2 5 6 5 4 4 4 4 4 4 4 3 5 6 6 5 5 8 8 9 9 7 7 9 9 9 9 9 8 8 8 8 8 8 7 7 8 8 8 8 8 8 8
5 6 7 7 7 6 6 7 6 5 5 6 6 6 5 6 5 5 5 6 5 5 4 4 4 4 4 5 6 6 6 5 5 4 4 3 2 4 3 4 5 6 3 2 4 5 4 4 5 5 4 5 4 4 4 5 6 6 9 9 9 9 9 8 9 10 9 9 10 10 9 9 9 9 9 9 9 9 9 9 9 9 9 9 9
6 6 7 7 7 8 7 6 6 6 7 6 5 5 5 5 4 5 5 5 4 4 4 5 5 4 4 4 5 5 4 5 4 5 6 5 5 5 5 0 2 5 4 3 3 5 5 6 6 6 5 4 4 4 4 5 5 10 8 9 9 10 10 11 11 10 10 10 9 9 10 10 10 10 10 10 10 10 10 10 10 10 10 10 10
6 7 7 8 7 8 7 7 6 6 6 6 5 6 5 5 5 6 5 6 5 6 5 6 6 6 6 4 4 3 5 4 2 3 4 1 3 4 2 1 4 3 2 1 3 2 5 6 6 6 5 5 4 4 5 5 5 7 10 7 10 10 11 11 10 10 11 12 11 11 10 10 9 9 9 10 11 11 11 11 11 11 11 11 11
7 9 7 7 7 8 8 7 7 7 7 6 6 6 6 5 6 6 6 5 5 6 6 5 5 6 4 4 4 5 5 3 4 3 4 4 3 5 4 0 1 4 2 2 1 2 3 4 5 5 5 6 5 5 5 5 5 8 10 8 7 10 11 11 12 11 11 12 12 12 12 12 11 11 11 11 12 12 12 12 13 12 12 11 10
9 8 7 9 8 7 8 7 7 7 6 6 5 6 6 5 5 5 5 4 5 5 5 5 6 7 6 6 5 4 5 4 4 5 4 5 5 5 5 5 3 2 4 2 2 6 7 3 4 6 7 6 6 6 6 6 6 8 9 7 6 10 11 12 12 13 12 13 13 14 14 14 13 14 13 13 13 14 14 13 13 13 12 12 10
7 6 8 8 9 9 7 8 7 6 6 7 6 6 6 6 5 5 6 3 5 6 5 5 6 7 7 5 4 5 5 4 5 5 5 5 5 4 5 5 5 6 2 4 3 5 4 6 2 6 7 7 7 6 6 7 6 10 10 7 6 7 11 13 13 13 14 14 14 14 15 15 15 15 15 15 14 14 14 13 13 12 12 11 11
7 6 7 8 8 8 8 7 7 7 7 7 6 6 6 6 5 6 6 5 5 6 5 6 6 5 5 6 6 6 5 4 4 4 4 3 4 4 5 7 6 4 4 4 5 4 3 6 4 4 6 7 6 5 5 7 8 8 7 7 7 7 10 13 14 14 15 15 15 15 15 16 16 16 16 16 16 15 15 15 14 13 13 13 12
7 6 8 8 8 9 9 8 7 7 8 7 7 6 6 6 6 6 6 5 6 5 5 5 6 5 5 5 5 6 4 4 5 5 5 5 5 5 5 5 5 6 5 6 8 5 4 2 5 4 1 5 5 5 6 7 7 10 7 7 7 8 13 14 14 15 15 16 16 16 16 17 17 17 17 17 17 16 16 16 15 15 15 14 13
7 8 8 8 8 9 9 8 7 8 7 7 7 6 6 6 6 6 5 6 5 6 5 5 5 5 6 7 6 6 4 5 4 4 4 5 5 5 4 4 5 6 6 4 6 4 4 4 5 5 5 5 4 5 5 6 6 9 7 7 8 12 13 12 15 15 16 16 17 17 17 18 18 17 17 17 17 17 17 17 17 16 16 15 14
8 9 9 9 9 9 7 7 8 7 7 7 7 7 6 6 5 6 6 6 6 6 5 5 4 5 6 7 7 6 5 4 4 4 5 5 5 5 5 5 5 5 5 5 6 12 3 4 4 4 6 5 4 5 7 5 5 9 7 7 9 11 8 8 14 17 17 17 18 18 18 19 18 18 18 18 18 18 18 17 17 17 16 16 15
8 9 9 10 10 10 10 9 9 9 9 8 7 6 6 7 6 6 6 7 7 6 5 6 5 6 7 7 7 7 5 5 5 4 4 5 4 5 5 5 5 5 6 6 7 10 8 3 4 3 0 2 4 6 7 6 6 6 8 8 8 7 8 7 8 15 18 18 19 19 20 20 20 20 19 19 19 19 19 18 18 17 17 16 15
9 9 10 9 9 10 9 10 10 10 9 9 7 6 7 7 7 5 6 6 7 7 5 7 7 5 6 8 7 6 6 6 5 5 5 5 5 5 5 6 6 6 6 6 7 6 13 4 4 1 3 3 4 3 7 7 7 5 7 6 6 8 8 8 8 9 17 18 19 20 20 21 21 20 20 20 20 19 19 19 18 18 17 16 16
9 9 10 10 10 10 10 9 10 9 10 9 8 8 8 9 8 7 6 7 7 7 7 8 7 5 6 7 7 6 4 6 6 6 5 6 5 6 7 5 6 6 5 7 6 8 10 11 4 6 4 3 6 5 5 5 5 3 6 7 7 7 7 8 8 8 14 17 19 20 21 21 21 21 21 21 20 20 20 20 19 18 17 16 16
9 8 9 10 9 10 10 10 10 10 10 9 8 8 9 9 8 9 7 8 7 8 8 8 7 7 8 7 8 7 5 6 6 5 6 6 7 7 7 6 7 7 6 6 8 8 7 10 8 5 4 4 5 5 4 3 4 5 6 6 5 7 8 8 9 9 11 17 19 20 20 20 21 21 21 21 20 20 20 20 20 19 18 17 16
10 9 9 9 10 10 10 11 11 11 11 10 10 8 8 8 9 8 8 8 8 8 8 8 7 8 8 9 9 6 5 6 6 7 6 8 7 7 7 6 6 6 5 6 7 6 8 10 11 5 3 4 4 4 4 5 5 6 5 7 7 8 8 8 7 9 13 15 17 19 19 20 20 21 21 20 20 21 21 20 20 20 19 18 17
11 9 11 9 10 11 11 11 11 11 10 10 10 10 8 8 8 8 8 8 8 8 8 8 8 7 8 9 8 6 6 8 8 7 7 9 7 7 8 7 5 5 6 6 5 6 6 9 9 10 6 6 7 6 4 5 5 6 7 7 6 7 7 8 8 7 6 7 7 9 14 16 20 22 22 21 22 22 22 21 20 20 19 18 18
10 10 10 11 10 11 12 11 11 11 10 10 10 10 10 10 10 10 9 9 8 7 8 8 8 8 8 8 8 7 8 8 9 9 8 7 6 8 8 7 5 6 6 7 6 6 7 7 7 7 8 5 5 10 4 3 5 6 8 10 9 6 6 8 8 6 6 9 12 15 13 11 15 15 19 22 23 22 22 22 21 21 20 19 18
10 11 10 11 10 10 11 11 11 9 10 9 10 10 10 11 10 10 9 9 8 8 8 8 8 8 9 9 9 8 9 9 9 9 8 8 7 7 8 6 6 7 7 6 5 6 6 7 7 10 8 7 4 4 2 1 4 6 6 6 10 12 9 6 8 8 6 7 8 8 11 13 15 18 20 21 23 22 22 21 21 20 20 19 19
10 10 11 11 11 11 11 10 10 10 10 11 10 10 11 12 10 10 9 9 9 8 8 8 8 9 9 9 9 9 10 13 14 13 11 11 8 9 10 7 6 6 6 5 6 6 6 5 8 9 8 9 8 7 6 6 8 12 5 5 8 8 8 8 9 7 8 8 7 9 9 8 9 10 9 9 12 17 19 22 17 20 21 19 20
11 10 10 11 11 12 12 11 11 9 10 9 12 17 15 11 10 9 9 10 10 9 8 7 9 9 10 9 9 14 14 14 15 16 16 16 15 12 12 8 9 6 6 6 6 6 6 7 7 8 8 10 9 8 10 9 9 7 7 7 8 10 7 8 11 7 7 8 10 9 11 7 9 9 7 10 9 9 8 9 10 14 18 22 21
12 11 11 12 12 12 12 11 10 10 10 10 16 16 17 17 12 10 10 10 8 8 8 9 9 9 8 9 9 11 12 12 14 18 17 17 17 18 19 17 12 9 7 6 7 6 7 7 7 7 8 12 12 9 10 9 8 9 9 8 9 8 9 10 14 8 6 9 8 8 12 8 8 9 9 9 7 6 8 10 18 21 22 21 22
12 11 12 13 13 12 11 11 11 10 11 14 16 16 17 18 15 12 9 8 8 8 8 9 9 8 9 8 8 7 8 11 10 10 13 16 17 17 19 19 18 16 13 11 11 8 8 9 10 10 11 12 14 10 9 8 11 9 8 9 9 10 11 11 12 13 6 9 9 8 11 9 8 9 10 12 10 7 11 16 21 21 21 21 21
12 13 13 13 13 13 13 13 13 13 11 14 17 18 17 18 18 14 10 10 9 8 9 10 10 11 10 9 8 8 8 14 11 10 9 10 13 18 18 19 18 17 15 15 14 13 10 10 12 13 12 12 14 14 11 12 8 10 8 9 10 10 11 12 14 13 10 7 7 6 12 12 6 7 10 12 8 10 12 17 21 21 20 20 21
12 13 14 14 13 13 13 13 13 12 13 15 17 18 18 18 18 15 10 11 10 11 12 11 10 10 12 11 9 9 8 8 9 9 9 9 8 9 10 9 10 13 13 15 16 18 17 15 14 16 16 12 15 15 14 10 10 11 11 13 10 10 12 15 15 13 8 6 10 8 12 13 5 7 13 11 6 9 9 10 17 18 18 21 20
13 14 14 13 13 13 14 13 12 12 11 17 16 18 18 18 18 15 9 9 10 11 12 12 13 13 12 11 11 11 11 10 10 10 9 9 8 8 10 12 10 9 7 8 11 12 13 11 15 18 19 16 16 18 15 11 13 12 12 13 12 11 11 12 11 8 10 7 8 7 14 15 7 9 12 8 7 9 6 12 17 18 22 22 22
12 11 11 12 13 14 14 13 12 14 13 17 17 17 18 17 17 10 9 11 10 11 12 13 12 11 11 12 12 12 11 11 13 16 14 11 8 11 12 13 12 7 6 10 15 16 16 16 15 17 17 17 17 17 16 14 11 9 5 9 10 5 9 13 14 8 12 8 13 11 10 14 13 8 11 7 7 10 11 12 14 20 21 22 23
11 11 13 11 11 12 13 13 15 15 14 15 17 18 17 18 13 9 9 8 10 11 13 12 12 12 12 12 12 11 11 12 14 15 16 14 11 13 12 13 12 7 5 7 13 18 24 26 24 24 24 20 19 20 22 24 17 7 1 10 16 8 10 11 13 11 13 13 7 10 10 14 12 9 11 7 8 10 11 13 11 16 22 22 21
12 12 11 11 12 12 14 14 14 12 12 14 17 17 18 18 16 11 9 8 11 12 12 12 11 11 12 16 14 12 13 13 15 16 16 14 10 10 11 12 12 8 6 5 3 14 26 24 20 21 20 19 21 23 23 22 21 10 8 13 18 9 12 15 16 14 12 14 9 9 10 15 10 9 11 6 4 8 12 12 12 12 19 18 20
12 10 11 10 10 11 12 12 15 16 13 13 16 17 18 19 17 11 10 10 10 11 9 11 11 10 11 11 16 16 14 15 16 15 17 14 10 10 10 10 10 10 6 12 11 17 18 14 12 12 14 17 16 14 16 21 20 12 12 14 11 11 12 14 14 13 12 14 14 12 11 14 13 13 10 6 9 10 9 11 10 11 10 9 13
Wind_Direction
181 189 143 181 177 159 160 251 333 288 31 340 7 335 12 31 20 77 117 134 200 222 168 168 178 189 169 161 161 162 167 172 179 175 191 205 225 240 212 189 202 226 197 215 180 171 169 170 165 160 155 151 147 144 146 144 147 148 150 151 148 148 144 144 142 132 117 98 71 35 24 19 1 351 336 341 340 339 339 334 336 343 343 345 347
191 177 169 197 189 192 201 236 244 283 309 268 292 254 286 5 12 358 142 159 211 252 206 174 176 188 195 174 174 174 174 171 170 183 187 197 226 247 231 208 192 208 212 214 211 187 181 181 176 170 168 165 164 163 164 164 159 160 161 167 167 166 164 153 158 156 165 138 42 348 349 354 353 345 337 336 335 338 333 335 339 341 342 345 348
186 184 180 180 188 195 220 207 248 249 220 255 284 295 321 281 311 319 232 147 206 237 219 216 194 185 192 188 184 174 172 167 166 167 186 202 212 227 261 233 212 196 210 211 208 208 195 196 191 188 179 179 182 182 179 182 182 180 189 190 190 191 193 189 202 214 263 245 219 295 309 313 320 326 327 329 329 327 332 337 342 342 353 340 348
192 187 185 178 191 205 206 204 239 224 217 248 275 306 292 284 295 2 206 132 86 23 213 218 232 213 178 189 170 177 175 169 166 170 181 198 207 224 248 244 234 219 216 215 205 213 209 203 207 203 198 201 197 198 200 200 201 209 209 214 216 211 217 224 227 248 259 281 281 298 308 298 297 305 320 326 327 332 337 343 352 349 344 338 344
199 195 193 186 192 206 212 224 235 241 236 247 280 316 306 310 331 108 48 21 30 11 336 220 257 240 203 186 164 179 171 166 167 168 178 192 203 218 221 266 216 236 232 218 217 217 219 213 215 212 211 218 219 220 220 215 221 221 228 230 234 237 240 238 239 255 270 278 276 281 295 302 306 309 319 321 326 332 331 338 348 342 343 350 353
192 200 189 182 196 204 210 229 229 226 232 217 245 247 282 300 298 116 163 126 103 335 336 303 292 28 218 188 173 172 166 172 173 174 172 190 200 206 229 254 275 252 246 248 238 223 231 221 223 220 223 224 228 231 234 233 235 235 237 240 248 259 252 255 260 269 274 278 299 302 296 305 306 310 311 310 319 323 330 339 343 345 352 3 8
198 195 197 184 195 209 213 227 222 219 241 233 222 219 176 218 235 153 61 81 61 348 302 274 302 299 226 179 176 155 169 175 163 164 177 180 197 203 203 231 267 264 272 272 260 251 243 239 228 227 227 234 232 235 239 248 250 253 240 232 250 256 273 284 280 276 285 290 292 300 308 308 311 314 318 323 329 342 346 347 355 4 13 25 32
201 193 198 194 198 208 216 198 202 199 237 271 154 227 220 227 248 153 246 296 241 14 281 262 211 127 144 155 164 170 173 167 170 168 168 167 195 203 203 218 228 265 241 255 289 262 249 247 247 237 233 238 244 243 245 239 246 260 288 292 272 261 256 252 267 279 280 284 286 291 303 306 313 315 317 323 331 346 355 360 13 25 38 38 41
200 195 200 201 205 211 203 191 180 187 199 194 214 188 196 220 216 198 208 187 131 170 328 341 44 78 109 138 186 178 186 176 173 161 154 171 181 198 206 214 221 236 240 238 254 271 267 256 246 248 241 243 248 255 256 254 253 257 246 255 267 276 279 288 289 281 273 279 286 289 295 302 301 311 320 328 337 350 9 30 38 50 46 38 34
197 194 203 204 203 206 187 178 173 165 179 198 231 193 176 209 232 138 163 95 289 151 143 313 32 69 48 63 277 233 224 194 164 168 162 168 176 199 210 209 217 227 238 241 239 255 268 259 254 246 255 248 247 253 258 258 259 262 263 257 266 269 268 270 274 271 278 279 284 289 291 295 306 312 316 331 340 9 53 54 50 52 41 38 38
197 191 195 200 195 192 186 180 161 160 168 203 242 246 190 163 237 187 124 175 206 191 140 82 41 46 55 31 32 7 2 350 349 35 65 139 206 212 206 214 211 218 233 243 244 245 257 261 279 266 245 250 252 252 253 257 257 265 273 271 263 267 268 257 262 265 263 269 275 282 290 298 308 314 318 322 10 65 56 48 35 35 46 46 46
195 189 192 193 193 188 185 163 160 155 167 186 221 229 228 216 242 210 100 88 45 99 118 108 66 52 43 41 43 57 54 44 54 32 47 307 258 243 232 215 213 221 228 236 245 247 245 251 257 260 270 261 260 258 260 261 261 251 239 250 258 256 262 251 254 262 268 272 273 283 290 301 308 317 333 6 61 70 56 41 38 44 53 51 45
188 179 191 196 194 174 167 164 160 169 178 200 201 209 217 204 157 215 135 105 54 79 100 113 108 62 29 44 31 25 71 90 51 34 32 325 277 266 251 243 227 231 228 228 239 242 242 244 247 250 250 254 262 269 269 266 262 256 250 249 254 259 255 259 257 261 262 268 275 278 288 292 332 6 15 33 80 60 48 56 52 52 51 49 42
183 182 188 192 184 176 176 179 167 181 195 193 194 215 206 195 144 110 51 159 223 192 169 111 39 142 126 17 13 340 45 91 150 259 193 213 254 260 257 252 252 233 218 229 233 235 242 242 246 249 250 252 260 269 273 277 277 272 261 257 254 252 257 252 260 260 260 263 275 284 272 354 15 343 324 339 69 54 62 30 76 61 47 45 40
185 182 184 193 192 179 186 175 178 173 174 190 195 216 206 210 185 203 211 100 157 192 179 126 136 108 117 83 14 9 326 1 298 241 236 200 222 253 249 257 262 256 231 236 237 235 240 240 239 242 244 248 254 257 261 265 263 261 258 263 265 265 261 256 255 256 261 267 268 268 247 242 298 300 305 301 308 342 70 79 37 51 28 30 26
184 181 189 191 187 188 172 175 180 178 181 184 193 211 202 205 189 213 155 239 43 180 169 156 137 141 80 47 178 103 356 286 289 294 269 212 213 245 239 257 267 266 246 248 249 243 243 242 241 240 240 240 243 248 252 252 262 267 265 254 244 249 272 271 265 261 262 261 268 211 229 242 270 271 267 272 237 201 192 157 131 299 336 348 2
187 183 186 191 189 186 178 178 175 177 171 187 196 204 197 195 186 184 192 200 234 186 212 170 180 43 135 107 52 18 226 258 2 282 325 253 222 227 239 238 246 254 254 250 247 247 252 249 247 246 243 243 245 248 251 251 255 263 273 278 270 213 230 258 261 260 260 266 272 225 194 220 238 236 237 223 216 215 210 218 224 256 291 311 340
191 189 191 184 190 189 185 177 179 175 184 192 195 185 196 194 196 189 204 207 203 190 227 172 212 176 167 153 163 168 192 230 140 273 319 233 276 241 226 232 223 238 246 250 241 236 242 256 252 252 252 246 246 250 250 249 246 250 249 266 279 278 221 232 249 259 254 249 252 226 225 220 227 229 230 224 218 222 224 224 239 254 280 305 319
192 193 195 193 194 192 191 192 187 182 183 176 192 203 201 202 182 181 208 175 149 213 216 207 93 189 187 134 79 58 154 133 213 50 314 315 239 234 242 222 220 224 237 245 241 238 230 239 256 258 254 249 250 250 253 251 247 247 252 252 250 265 245 221 236 260 259 238 241 224 214 215 215 221 223 225 229 221 229 234 242 261 279 293 298
195 197 199 196 192 195 191 189 187 187 180 191 201 205 196 211 196 199 160 182 184 207 226 187 184 214 177 203 239 62 163 71 159 180 168 201 284 320 245 257 238 237 235 242 240 236 238 227 235 248 250 234 237 245 246 249 248 249 254 254 252 252 254 228 236 244 241 235 237 229 216 213 214 213 220 224 229 232 232 242 253 259 269 283 290
198 198 201 201 198 197 192 194 191 189 191 196 202 193 201 194 187 177 187 184 186 197 187 208 197 195 124 30 83 85 168 354 129 106 141 170 273 254 264 343 262 251 238 239 243 234 233 237 234 240 239 241 224 239 245 246 248 243 246 244 249 250 249 229 225 231 228 237 240 226 220 218 216 217 217 224 229 237 243 244 250 258 266 273 284
201 202 202 203 206 198 194 200 203 191 194 196 190 195 200 203 201 200 189 189 187 187 198 203 197 194 189 156 155 88 51 18 75 155 322 178 225 228 225 225 256 265 221 232 233 233 229 231 235 238 238 234 230 223 239 243 242 242 238 241 245 252 253 230 219 227 232 235 236 232 223 225 225 225 226 227 231 235 242 250 255 260 268 275 284
188 199 201 199 203 200 201 204 201 197 197 190 192 195 198 200 204 201 197 195 189 194 210 196 183 190 183 182 196 183 188 191 206 200 200 201 228 270 245 211 235 284 275 260 242 236 226 220 231 235 228 235 227 222 220 228 234 234 239 239 240 246 250 235 228 229 230 234 232 232 231 228 229 229 231 233 234 237 240 245 253 260 268 274 279
190 195 201 199 201 206 206 203 205 201 207 199 192 193 193 193 196 197 206 204 188 184 204 208 206 209 213 194 211 208 198 197 200 184 187 217 194 233 236 337 280 233 277 314 252 238 226 225 226 229 226 229 227 221 222 227 229 231 233 235 235 237 241 242 233 226 227 229 231 232 234 232 231 232 232 234 237 239 243 246 252 259 265 271 274
196 198 205 198 200 205 207 208 211 210 209 198 199 190 186 192 201 205 205 200 193 188 189 209 194 202 215 198 194 198 222 222 155 178 211 146 191 244 270 179 244 292 298 286 274 267 231 237 225 222 220 220 223 216 219 222 229 221 226 234 230 235 236 238 236 232 229 230 232 231 233 234 233 232 232 235 239 243 247 251 255 260 265 270 273
190 204 197 192 201 207 205 210 211 209 205 202 198 196 191 196 201 209 212 209 192 192 202 203 199 216 198 196 201 203 224 196 197 164 173 162 187 218 227 237 205 269 291 287 308 311 271 233 230 221 217 220 221 215 219 223 229 225 223 231 229 229 234 235 235 235 234 233 234 235 235 235 234 234 235 235 239 243 246 251 256 260 265 269 273
198 200 186 195 202 201 204 208 208 208 206 204 198 195 200 200 203 214 219 203 204 198 205 196 204 207 203 206 204 200 222 200 183 203 170 198 197 196 176 231 276 249 269 269 288 219 244 301 214 217 218 218 214 214 214 220 228 221 220 227 235 226 230 234 234 233 233 234 235 236 237 237 236 237 238 240 240 243 247 249 252 255 260 262 266
196 183 192 192 196 202 202 208 205 206 209 209 199 192 195 201 207 210 222 195 206 205 212 197 215 211 215 208 195 224 203 198 195 191 193 203 196 172 181 190 227 280 300 278 257 262 202 229 280 221 212 216 218 213 213 219 226 219 220 225 225 229 227 229 232 232 233 233 234 235 236 237 238 239 240 242 243 244 246 248 251 254 256 257 258
188 185 185 195 198 199 203 205 202 204 208 212 206 198 189 200 206 205 218 206 207 214 208 204 214 209 211 207 213 222 212 179 184 190 191 183 197 189 185 192 181 227 278 288 263 252 269 196 224 268 205 214 219 206 205 217 222 208 212 218 221 226 226 225 228 231 232 233 235 235 236 237 239 240 242 243 245 246 246 247 248 250 253 256 258
187 185 185 189 197 200 205 209 204 200 207 208 208 203 190 200 206 211 212 198 211 218 212 211 215 197 210 211 212 226 204 178 190 192 184 197 185 188 196 197 174 208 218 256 280 200 249 244 213 254 222 229 221 218 210 224 221 214 211 216 221 226 229 225 227 229 231 232 234 234 235 237 239 240 241 242 244 245 246 246 247 248 249 251 253
188 184 185 190 194 201 205 208 205 207 206 209 208 207 199 203 199 211 202 201 210 220 217 207 216 193 204 213 205 226 204 200 191 188 194 182 197 187 200 175 195 200 204 209 277 277 182 239 235 233 235 220 218 227 224 232 223 215 220 220 223 231 230 231 230 231 231 232 232 233 234 236 237 238 240 241 242 243 244 245 246 247 248 248 247
194 190 190 193 195 198 201 204 206 207 205 211 206 210 203 213 204 205 199 194 213 221 220 208 215 207 211 217 214 218 201 191 200 194 199 201 187 194 188 193 206 198 181 200 231 268 201 225 244 237 227 225 199 213 230 237 223 216 224 226 230 232 233 236 233 230 232 233 233 234 234 235 235 236 237 239 239 241 242 243 244 245 246 246 245
188 193 197 197 198 202 202 205 208 210 212 211 206 205 209 218 217 212 195 196 211 222 215 218 214 215 218 227 227 219 182 198 203 200 205 204 198 205 193 192 209 185 181 195 232 266 278 193 250 255 260 214 235 209 230 234 231 223 227 230 228 224 229 232 235 232 230 232 233 233 234 234 234 234 236 237 238 239 241 243 244 244 244 244 243
189 196 200 199 200 201 202 207 209 212 213 213 203 199 208 216 221 208 208 200 213 223 209 227 216 214 219 227 237 222 184 205 205 206 204 205 204 204 207 197 211 202 189 193 228 238 273 261 268 187 247 173 255 179 214 230 238 218 227 231 228 226 228 231 233 236 231 231 232 234 234 235 234 234 235 236 238 239 240 242 244 244 243 242 240
196 199 201 202 201 202 205 207 208 212 213 213 208 205 212 215 217 214 210 207 210 214 215 224 221 210 223 228 238 230 189 206 211 215 201 212 205 213 214 201 217 210 189 204 206 245 258 275 226 264 235 213 213 243 221 241 254 225 235 234 230 229 228 229 234 240 233 229 232 233 234 235 236 236 235 236 237 239 239 240 241 241 241 240 237
196 202 202 203 203 203 207 208 208 212 212 213 211 208 213 213 216 218 213 214 215 216 218 221 217 210 220 228 237 228 209 218 226 217 213 212 214 218 219 210 209 217 191 188 217 232 254 274 265 225 250 237 246 242 242 239 245 238 228 244 236 241 236 226 229 239 236 231 232 232 233 234 237 238 237 237 237 237 238 237 237 237 236 235 233
202 198 203 201 204 205 209 211 210 211 213 211 212 212 214 214 217 218 217 216 218 220 221 223 218 215 218 223 234 220 198 219 230 230 215 218 220 218 227 220 216 216 197 201 211 210 237 252 271 241 213 237 239 249 203 227 236 240 243 238 231 239 244 238 235 239 248 240 236 235 233 233 235 236 237 237 237 238 237 236 235 235 234 232 230
203 201 202 200 205 209 213 214 212 214 212 211 213 214 210 211 216 219 220 219 221 221 222 223 220 219 221 227 231 214 200 212 228 231 226 227 222 225 230 231 219 208 222 224 215 223 227 250 259 279 251 260 270 247 203 204 238 259 259 247 245 243 250 257 239 234 233 238 224 233 235 235 235 235 234 234 234 235 236 235 234 233 231 230 228
202 204 204 205 209 211 216 214 215 214 213 213 214 214 215 215 218 219 220 220 222 222 224 223 223 222 227 230 230 213 214 216 226 229 228 227 222 230 232 235 215 208 224 229 220 225 232 250 260 251 268 251 231 271 267 197 239 245 268 277 271 230 221 239 258 237 235 249 247 242 240 229 230 232 231 233 233 232 234 234 232 231 229 226 225
205 208 206 209 211 213 218 216 217 212 212 213 214 214 215 216 217 220 220 220 219 222 225 224 222 226 227 229 226 217 216 221 223 232 223 235 230 235 233 215 210 207 225 233 228 231 241 247 253 271 265 268 237 235 290 279 266 260 223 239 267 274 261 229 232 249 236 234 248 245 236 236 237 233 232 232 231 229 233 234 233 231 229 226 222
209 210 211 212 215 218 221 219 218 212 213 216 215 212 215 217 217 221 220 221 220 220 222 222 223 227 230 230 227 224 222 228 226 229 227 224 230 240 243 219 213 209 222 230 234 233 243 249 266 268 273 270 261 267 255 231 229 253 255 184 244 256 270 277 260 217 226 232 237 243 241 217 224 225 218 224 227 225 231 230 232 229 228 225 221
209 209 211 214 217 219 221 220 218 215 217 220 218 212 210 214 214 220 222 225 224 225 224 224 226 225 229 230 233 232 228 226 226 227 229 227 226 231 244 231 226 213 214 227 231 233 243 251 249 260 265 265 261 249 256 250 247 250 247 229 244 261 271 267 271 238 205 214 234 238 246 219 217 235 218 231 230 207 221 216 219 222 222 219 218
207 207 209 214 217 219 220 220 217 217 220 223 219 211 213 213 213 216 220 224 222 223 223 227 232 228 228 228 235 233 227 228 229 228 228 227 227 232 239 242 232 220 219 222 235 232 242 244 250 247 251 267 263 251 251 257 251 244 247 245 247 259 258 267 277 276 179 206 220 233 251 232 213 230 228 229 221 198 216 224 228 224 224 217 214
208 207 211 214 216 219 221 221 221 219 223 223 215 212 211 211 211 218 218 221 220 221 223 226 233 233 233 232 228 228 225 224 222 227 230 231 230 232 237 241 240 233 225 226 240 245 239 249 256 247 254 257 265 257 252 246 254 252 241 242 239 241 251 252 255 263 232 178 216 225 247 240 214 223 237 234 217 199 211 221 224 222 220 219 214
208 208 213 213 216 218 221 223 224 223 226 220 213 212 210 207 208 211 225 223 219 222 223 226 230 235 236 237 238 233 232 227 227 228 229 229 224 229 235 241 244 238 233 235 238 242 250 251 251 257 244 254 260 258 244 248 245 254 247 244 236 236 243 250 254 258 252 186 218 234 254 251 196 225 235 239 206 217 224 220 222 219 216 217 217
211 214 215 216 217 217 220 223 226 228 227 224 211 211 209 206 204 202 221 222 225 227 227 227 228 231 233 234 237 239 232 226 225 224 226 232 230 219 226 228 235 238 230 230 238 246 245 247 250 255 252 234 251 255 250 236 237 241 242 250 244 240 246 246 253 257 271 154 221 251 267 264 211 229 245 245 194 225 233 238 225 223 217 218 216
209 214 215 215 218 218 220 221 224 229 229 223 213 210 208 203 201 198 213 221 227 230 231 231 232 233 233 232 235 240 240 234 229 221 221 225 225 227 239 246 233 229 209 204 219 227 235 230 240 245 252 248 249 256 257 246 236 240 242 253 260 252 263 279 276 265 268 201 219 215 257 271 236 227 250 243 188 218 194 245 223 215 215 216 214
215 215 217 218 219 220 220 221 224 231 232 220 214 212 206 203 195 197 207 219 223 229 234 234 234 233 233 232 235 239 241 239 235 220 222 227 226 236 241 249 252 222 202 209 224 230 231 234 233 241 245 246 246 253 259 257 251 247 289 295 274 285 283 278 277 274 264 230 206 209 241 263 259 251 255 235 193 213 215 231 214 211 214 217 215
211 211 217 213 217 219 219 219 224 230 235 221 211 210 205 196 187 202 206 214 223 229 235 234 235 235 233 231 231 239 239 241 236 223 220 217 233 240 241 249 252 240 198 194 226 238 239 237 234 240 248 255 259 259 260 260 259 256 129 273 271 262 270 268 269 266 265 267 221 192 229 257 255 246 256 237 207 218 228 230 223 207 208 214 216
211 212 210 217 217 217 219 221 220 226 232 223 208 208 202 192 191 196 207 210 223 228 237 237 235 237 236 230 230 234 239 242 237 225 220 208 220 225 238 245 251 249 227 119 312 252 247 247 247 250 255 257 257 260 263 268 266 252 207 236 256 246 244 256 263 268 275 274 251 156 224 247 260 246 253 250 194 224 229 230 222 217 209 203 213
216 214 215 217 218 218 218 221 222 223 232 226 206 205 201 194 196 209 205 213 222 227 231 239 234 236 238 233 228 231 235 240 237 229 222 206 214 221 224 238 250 256 229 135 220 253 261 265 257 258 265 260 261 263 263 260 259 238 221 236 251 248 248 253 256 262 268 264 258 163 224 250 249 247 240 247 243 233 225 225 218 216 205 187 210